(367643) = 2009 WZ52

Discovered at Bisei SG Center on 2009-11-22 by BATTeRS.

Orbit

Orbit type: Main Belt

Note: WebGL enabled browser required.

epoch2023-02-25.0
epoch JD2460000.5
perihelion date2021-11-08.66897
perihelion JD2459527.16897
argument of perihelion (°)249.47678
ascending node (°)242.86590
inclination (°)15.50655
eccentricity0.1977431
perihelion distance (AU)2.5358962
Tisserand w.r.t. Jupiter3.1
ΔV w.r.t. Earth (km/sec)11.0
semimajor axis (AU)3.1609529
mean anomaly (°)83.01217
mean daily motion (°/day)0.17537870
aphelion distance (AU)3.786
period (years)5.62
P-vector [x]-0.64322526
P-vector [y]0.76346907
P-vector [z]0.05810537
Q-vector [x]-0.72777276
Q-vector [y]-0.58603879
Q-vector [z]-0.35623777
absolute magnitude15.7
phase slope0.15
uncertainty0
referenceMPO 745323
observations used262
oppositions11
arc length (days)7186
first opposition used2003
last opposition used2023
residual rms (arc-secs)0.68
perturbers coarse indicatorM-v
perturbers precise indicator003Ek
first observation date used2003-10-22.0
last observation date used2023-06-25.0
computer nameMPCLINUX
JD of orbit computation2456937.216644
perihelion JD uncertainty (days)1.3869E-04
argument of perihelion uncertainty (°)2.8238E-05
ascending node uncertainty (°)1.9964E-05
inclination uncertainty (°)6.8970E-06
eccentricity uncertainty 7.7521E-08
perihelion distance uncertainty (AU)2.3453E-07
Minimum Orbit Intersection Distances (in AU)
for orbit epoch: 2460000.5, reference: E2023-ME7
Mercury2.22598
Venus1.85997
Earth1.59943
Mars1.0516
Jupiter1.69456
Saturn6.17847
Uranus15.7122
Neptune26.4485

Observations

262 total observations over interval: 2003 10 22.35202 – 2023 06 25.367781
These data are available for download (format description).

Date (UT) J2000 RA J2000 Dec Magn Location Ref
2003 10 22.35202 02 17 23.22 +24 34 49.1 20.8 V 691 – Steward Observatory, Kitt Peak-Spacewatch MPS 308762
2003 10 22.37862 02 17 21.96 +24 34 38.7 20.4 V 691 – Steward Observatory, Kitt Peak-Spacewatch MPS 308762
2003 10 22.40935 02 17 20.50 +24 34 26.4 20.4 V 691 – Steward Observatory, Kitt Peak-Spacewatch MPS 308762
2003 11 21.07800 01 55 37.22 +20 36 38.7 21.0 V 691 – Steward Observatory, Kitt Peak-Spacewatch MPS 308762
2003 11 21.10481 01 55 36.27 +20 36 25.2 20.9 V 691 – Steward Observatory, Kitt Peak-Spacewatch MPS 308762
2003 11 21.13180 01 55 35.30 +20 36 11.4 20.7 V 691 – Steward Observatory, Kitt Peak-Spacewatch MPS 308762
2009 10 30.37615 04 54 45.21 +22 44 10.5 19.8 V G96 – Mt. Lemmon Survey MPS 308762
2009 10 30.38293 04 54 45.00 +22 44 08.0 19.8 V G96 – Mt. Lemmon Survey MPS 308762
2009 10 30.38969 04 54 44.82 +22 44 06.2 19.7 V G96 – Mt. Lemmon Survey MPS 308762
2009 11 08.36441 04 50 13.71 +21 52 02.8 19.1 V 691 – Steward Observatory, Kitt Peak-Spacewatch MPS 308762
2009 11 08.38171 04 50 12.98 +21 51 54.0 19.7 V 691 – Steward Observatory, Kitt Peak-Spacewatch MPS 308762
2009 11 08.39912 04 50 12.30 +21 51 47.0 19.7 V 691 – Steward Observatory, Kitt Peak-Spacewatch MPS 308762
2009 11 20.26454 04 41 40.78 +20 32 52.3 19.7 V 691 – Steward Observatory, Kitt Peak-Spacewatch MPS 305309
2009 11 20.28228 04 41 39.91 +20 32 45.1 20.9 V 691 – Steward Observatory, Kitt Peak-Spacewatch MPS 305309
2009 11 20.30004 04 41 38.98 +20 32 37.5 19.8 V 691 – Steward Observatory, Kitt Peak-Spacewatch MPS 305309
2009 11 22.68131 04 39 40.96 +20 15 43.8 18.7 R 300 – Bisei Spaceguard Center-BATTeRS MPS 305309
2009 11 22.68459 04 39 40.77 +20 15 41.3 18.8 R 300 – Bisei Spaceguard Center-BATTeRS MPS 305309
2009 11 22.68788 04 39 40.57 +20 15 40.0 19.0 R 300 – Bisei Spaceguard Center-BATTeRS MPS 305309
2009 11 22.69116 04 39 40.48 +20 15 39.2 18.9 R 300 – Bisei Spaceguard Center-BATTeRS MPS 305309
2009 11 22.69444 04 39 40.25 +20 15 37.5 18.9 R 300 – Bisei Spaceguard Center-BATTeRS MPS 305309
2009 11 23.67593 04 38 50.73 +20 08 35.3 19.7 R 300 – Bisei Spaceguard Center-BATTeRS MPS 305309
2009 11 23.68586 04 38 50.10 +20 08 30.5 19.4 R 300 – Bisei Spaceguard Center-BATTeRS MPS 305309
2009 11 23.68916 04 38 49.96 +20 08 28.6 19.3 R 300 – Bisei Spaceguard Center-BATTeRS MPS 305309
2009 11 24.29028 04 38 19.44 +20 04 09.8 19.5 V 691 – Steward Observatory, Kitt Peak-Spacewatch MPS 305309
2009 11 24.30808 04 38 18.49 +20 04 02.1 19.6 V 691 – Steward Observatory, Kitt Peak-Spacewatch MPS 305309
2009 11 24.32586 04 38 17.56 +20 03 54.4 19.6 V 691 – Steward Observatory, Kitt Peak-Spacewatch MPS 305309
2009 12 11.29594 04 23 32.71 +18 00 02.5 19.1 V 703 – Catalina Sky Survey MPS 307444
2009 12 11.30315 04 23 32.31 +17 59 59.2 19.0 V 703 – Catalina Sky Survey MPS 307444
2009 12 11.31038 04 23 31.88 +17 59 56.7 19.0 V 703 – Catalina Sky Survey MPS 307444
2009 12 11.31762 04 23 31.52 +17 59 52.1 19.1 V 703 – Catalina Sky Survey MPS 307444
2009 12 17.19448 04 18 49.54 +17 18 58.9 19.8   704 – Lincoln Laboratory ETS, New Mexico MPS 307444
2009 12 17.21900 04 18 48.40 +17 18 48.5 20.2   704 – Lincoln Laboratory ETS, New Mexico MPS 307444
2009 12 17.23123 04 18 47.77 +17 18 44.5 19.6   704 – Lincoln Laboratory ETS, New Mexico MPS 307444
2009 12 17.24575 04 18 47.12 +17 18 37.8 19.1 V G96 – Mt. Lemmon Survey MPS 307444
2009 12 17.25301 04 18 46.76 +17 18 35.0 19.3 V G96 – Mt. Lemmon Survey MPS 307444
2009 12 17.25994 04 18 46.44 +17 18 32.1 19.1 V G96 – Mt. Lemmon Survey MPS 307444
2009 12 17.26715 04 18 46.11 +17 18 29.3 19.1 V G96 – Mt. Lemmon Survey MPS 307444
2009 12 19.06813 04 17 25.63 +17 06 27.0 19.4   A77 – Observatoire Chante-Perdrix, Dauban MPS 308762
2009 12 19.10036 04 17 24.18 +17 06 13.1 19.7   A77 – Observatoire Chante-Perdrix, Dauban MPS 308762
2009 12 19.13260 04 17 22.73 +17 06 01.9 19.0   A77 – Observatoire Chante-Perdrix, Dauban MPS 308762
2010 02 17.474887 04 17 24.37 +14 07 05.3   C51 – WISE MPS 313623
2010 02 17.607191 04 17 30.19 +14 07 07.2   C51 – WISE MPS 313623
2010 02 17.739495 04 17 36.01 +14 07 09.7   C51 – WISE MPS 313623
2010 02 17.871800 04 17 41.916 +14 07 12.14   C51 – WISE MPS 904204
2010 02 17.938015 04 17 44.88 +14 07 13.2   C51 – WISE MPS 313623
2010 02 18.004104 04 17 47.85 +14 07 14.7   C51 – WISE MPS 372105
2010 02 18.004231 04 17 47.85 +14 07 14.4   C51 – WISE MPS 372105
2010 02 18.07032 04 17 50.88 +14 07 15.4   C51 – WISE MPS 313623
2010 02 18.136535 04 17 53.75 +14 07 16.7   C51 – WISE MPS 313623
2010 02 18.202624 04 17 56.73 +14 07 18.3   C51 – WISE MPS 313623
2010 02 18.268839 04 17 59.74 +14 07 19.5   C51 – WISE MPS 372105
2010 02 18.334928 04 18 02.66 +14 07 20.0   C51 – WISE MPS 313623
2010 02 18.335056 04 18 02.69 +14 07 20.1   C51 – WISE MPS 372105
2010 02 18.467359 04 18 08.68 +14 07 23.5   C51 – WISE MPS 372105
2010 02 18.599652 04 18 14.67 +14 07 26.6   C51 – WISE MPS 372105
2010 02 18.73196 04 18 20.70 +14 07 30.4   C51 – WISE MPS 372105
2011 03 26.59926 12 16 05.23 -22 49 23.2 19.7 V E12 – Siding Spring Survey MPS 375645
2011 03 26.60965 12 16 04.69 -22 49 18.2 19.3 V E12 – Siding Spring Survey MPS 375645
2011 03 26.62015 12 16 04.26 -22 49 13.9 19.7 V E12 – Siding Spring Survey MPS 375645
2011 03 26.63052 12 16 03.75 -22 49 08.8 19.5 V E12 – Siding Spring Survey MPS 375645
2011 03 26.64095 12 16 03.32 -22 49 03.7 20.0 V E12 – Siding Spring Survey MPS 375645
2011 04 01.27722 12 11 59.82 -22 04 34.2 20.1 V 703 – Catalina Sky Survey MPS 375645
2011 04 01.28530 12 11 59.42 -22 04 30.3 20.4 V 703 – Catalina Sky Survey MPS 375645
2011 04 01.29335 12 11 59.13 -22 04 25.8 19.5 V 703 – Catalina Sky Survey MPS 375645
2011 04 01.30149 12 11 58.77 -22 04 22.3 19.8 V 703 – Catalina Sky Survey MPS 375645
2013 07 16.52858 21 24 57.009 +05 22 58.75 21.4 w F51 – Pan-STARRS 1, Haleakala MPS 472129
2013 07 16.54559 21 24 56.406 +05 22 59.70 21.5 w F51 – Pan-STARRS 1, Haleakala MPS 472129
2013 07 16.56182 21 24 55.828 +05 23 00.56 21.2 w F51 – Pan-STARRS 1, Haleakala MPS 472129
2013 07 16.57587 21 24 55.330 +05 23 01.38 21.2 w F51 – Pan-STARRS 1, Haleakala MPS 472129
2013 07 17.52914 21 24 22.272 +05 23 51.09 21.2 w F51 – Pan-STARRS 1, Haleakala MPS 472129
2013 07 17.54226 21 24 21.800 +05 23 51.68 21.6 w F51 – Pan-STARRS 1, Haleakala MPS 472129
2013 07 17.56829 21 24 20.860 +05 23 53.00 21.2 w F51 – Pan-STARRS 1, Haleakala MPS 472129
2013 08 02.48798 21 13 53.622 +05 18 10.29 21.4 g F51 – Pan-STARRS 1, Haleakala MPS 473673
2013 08 02.51295 21 13 52.547 +05 18 07.99 21.0 r F51 – Pan-STARRS 1, Haleakala MPS 473673
2013 08 02.52408 21 13 52.060 +05 18 06.92 21.2 r F51 – Pan-STARRS 1, Haleakala MPS 473673
2014 10 02.31203 00 50 56.890 +22 43 45.18 20.3 r F51 – Pan-STARRS 1, Haleakala MPS 538801
2014 10 02.32394 00 50 56.350 +22 43 41.22 20.3 r F51 – Pan-STARRS 1, Haleakala MPS 538801
2014 10 02.33580 00 50 55.823 +22 43 37.12 20.3 r F51 – Pan-STARRS 1, Haleakala MPS 538801
2014 10 02.34770 00 50 55.287 +22 43 33.15 20.3 r F51 – Pan-STARRS 1, Haleakala MPS 538801
2014 10 03.26209 00 50 15.10 +22 38 15.4 20.4 V G96 – Mt. Lemmon Survey MPS 538801
2014 10 03.26534 00 50 14.96 +22 38 14.5 20.6 V G96 – Mt. Lemmon Survey MPS 538801
2014 10 03.26859 00 50 14.84 +22 38 13.4 20.5 V G96 – Mt. Lemmon Survey MPS 538801
2014 10 03.27186 00 50 14.70 +22 38 12.1 20.3 V G96 – Mt. Lemmon Survey MPS 538801
2015 12 03.41249 07 45 32.81 +07 14 24.7 19.9 r G45 – Space Surveillance Telescope, Atom Site MPS 657007
2015 12 03.41953 07 45 32.72 +07 14 21.2 20.2 r G45 – Space Surveillance Telescope, Atom Site MPS 657007
2015 12 03.41970 07 45 32.70 +07 14 20.9 19.7 r G45 – Space Surveillance Telescope, Atom Site MPS 657007
2015 12 03.42519 07 45 32.60 +07 14 18.2 19.9 r G45 – Space Surveillance Telescope, Atom Site MPS 657007
2015 12 03.43061 07 45 32.55 +07 14 15.1 20.8 r G45 – Space Surveillance Telescope, Atom Site MPS 657007
2015 12 03.43068 07 45 32.55 +07 14 15.5 20.1 r G45 – Space Surveillance Telescope, Atom Site MPS 657007
2016 01 04.30515 07 26 30.58 +03 44 41.4 19.6 r G45 – Space Surveillance Telescope, Atom Site MPS 668147
2016 01 04.31077 07 26 30.27 +03 44 40.0 19.5 r G45 – Space Surveillance Telescope, Atom Site MPS 668147
